Redding, CA

4:24 AM PST on November 18, 2017 (GMT -0800)
Redding Municipal

Weather History for KRDD - October, 2012

Change the Weather History Date:

Wednesday, October 17, 2012

  Actual Average Record
Temperature  
Mean Temperature 78 °F -  
Max Temperature 91 °F 77 °F 99 °F (1988)
Min Temperature 64 °F 49 °F 39 °F (1996)
Degree Days  
Heating Degree Days 0    
Month to date heating degree days 12  
Cooling Degree Days 13    
Month to date cooling degree days 76  
Year to date cooling degree days 1933  
Growing Degree Days 28 (Base 50)    
Moisture  
Dew Point 23 °F    
Average Humidity 18    
Maximum Humidity 28    
Minimum Humidity 7    
Precipitation  
Precipitation 0.00 in 0.08 in 0.40 in (2004)
Month to date precipitation 0.00 0.81  
Year to date precipitation 17.29 22.58  
Since 1 July precipitation T  
Sea Level Pressure  
Sea Level Pressure 29.93 in    
Wind  
Wind Speed 12 mph (North)    
Max Wind Speed 23 mph    
Max Gust Speed 29 mph    
Visibility 10 miles    
Events      
T = Trace of Precipitation, MM = Missing Value Source: NWS Daily Summary

Daily Weather History Graph

Daily Weather History Graph

Search for Another Location

Airport or City:

Trip Planner

Search our weather history database for the weather conditions in past years. The results will help you decide how hot, cold, wet, or windy it might be!

Date:

Astronomy

Oct. 17, 2012 Rise Set
Actual Time 7:22 AM PDT 6:25 PM PDT
Civil Twilight 6:55 AM PDT 6:52 PM PDT
Nautical Twilight 6:23 AM PDT 7:24 PM PDT
Astronomical Twilight 5:52 AM PDT 7:55 PM PDT
Moon 10:04 AM PDT (10/17) 8:05 PM PDT (10/17)
Length of Visible Light 11h 57m
Length of Day
11h 02m
Waxing Crescent, 8% of the Moon is Illuminated
Oct 17
Waxing Crescent
Oct 21
First Quarter
Oct 29
Full
Nov 6
Last Quarter
Nov 13
New

Hourly Weather History & Observations

Time (PDT) Temp. Dew Point Humidity Pressure Visibility Wind Dir Wind Speed Gust Speed Precip Events Conditions
12:53 AM 66.0 °F 30.9 °F 27% 30.01 in 10.0 mi North - - N/A   Clear
1:53 AM 64.9 °F 30.9 °F 28% 30.01 in 10.0 mi North - - N/A   Clear
2:53 AM 64.9 °F 30.0 °F 27% 30.00 in 10.0 mi NNW 10.4 mph - N/A   Clear
3:53 AM 64.9 °F 28.9 °F 26% 29.97 in 10.0 mi NNW 12.7 mph 21.9 mph N/A   Clear
4:53 AM 64.9 °F 28.9 °F 26% 29.97 in 10.0 mi North 11.5 mph 18.4 mph N/A   Clear
5:53 AM 64.0 °F 28.0 °F 26% 29.96 in 10.0 mi NNW 10.4 mph 17.3 mph N/A   Clear
6:53 AM 64.9 °F 28.9 °F 26% 29.97 in 10.0 mi NNW 10.4 mph 21.9 mph N/A   Clear
7:53 AM 64.9 °F 28.0 °F 25% 29.97 in 10.0 mi Variable 3.5 mph - N/A   Clear
8:53 AM 66.9 °F 28.0 °F 23% 29.98 in 10.0 mi North 17.3 mph 26.5 mph N/A   Clear
9:53 AM 70.0 °F 27.0 °F 20% 29.98 in 10.0 mi North 16.1 mph 25.3 mph N/A   Clear
10:53 AM 75.0 °F 27.0 °F 17% 29.96 in 10.0 mi North 12.7 mph 21.9 mph N/A   Clear
11:53 AM 78.1 °F 24.1 °F 14% 29.94 in 10.0 mi North 16.1 mph 24.2 mph N/A   Clear
12:53 PM 82.0 °F 24.1 °F 12% 29.92 in 10.0 mi North 12.7 mph 19.6 mph N/A   Clear
1:53 PM 86.0 °F 19.9 °F 9% 29.88 in 10.0 mi North 17.3 mph 25.3 mph N/A   Clear
2:53 PM 89.1 °F 17.1 °F 7% 29.86 in 10.0 mi North 18.4 mph 26.5 mph N/A   Clear
3:53 PM 90.0 °F 18.0 °F 7% 29.85 in 10.0 mi North 16.1 mph 26.5 mph N/A   Clear
4:53 PM 90.0 °F 21.0 °F 8% 29.85 in 10.0 mi North 18.4 mph 27.6 mph N/A   Clear
5:53 PM 87.1 °F 21.0 °F 9% 29.84 in 10.0 mi North 9.2 mph 18.4 mph N/A   Clear
6:53 PM 82.9 °F 19.0 °F 9% 29.86 in 10.0 mi NNW 12.7 mph 19.6 mph N/A   Clear
7:53 PM 81.0 °F 19.0 °F 10% 29.87 in 10.0 mi NNW 9.2 mph - N/A   Clear
8:53 PM 79.0 °F 18.0 °F 10% 29.88 in 10.0 mi NNW 11.5 mph 17.3 mph N/A   Clear
9:53 PM 78.1 °F 16.0 °F 10% 29.89 in 10.0 mi North 12.7 mph - N/A   Clear
10:53 PM 77.0 °F 15.1 °F 10% 29.90 in 10.0 mi NNW 11.5 mph 18.4 mph N/A   Clear
11:53 PM 75.9 °F 15.1 °F 10% 29.90 in 10.0 mi North 11.5 mph 18.4 mph N/A   Clear